weather.gov     
National Weather Service

Regional Weather Roundup
NWS Homepage
This page is being discontinued on March 12, 2014.
The same data is available at this site. Please update your bookmarks.
Thank you, and we apologize for the inconvenience.
Please send an email to SR-SRH.Webmaster@noaa.gov with any concerns.


Current Version
Previous Version:    01  02  03  04  05  06  07  08  09  10  11  12  13  14  15  16  17  18  19  20  21  22  23  24  25  26  27  28  29  30  
   31  32  33  34  35  36  37  38  39  40  41  42  43  44  45  46  47  48  49  50  51  52  53  54  55  56  57  58  59  60  
[Printable]
388
ASUS44 KFWD 301715
RWRTX
NORTH TEXAS HOURLY WEATHER ROUNDUP
NATIONAL WEATHER SERVICE FORT WORTH TX
1200 PM CDT TUE SEP 30 2014

NOTE: "FAIR" INDICATES FEW OR NO CLOUDS BELOW 12,000 FEET WITH NO
SIGNIFICANT WEATHER AND/OR OBSTRUCTIONS TO VISIBILITY.

TXZ118-119-301800-
DALLAS/FORT WORTH METROPLEX

CITY           SKY/WX    TMP DP  RH WIND       PRES   REMARKS
DFW AIRPORT    PTSUNNY   84  67  56 S9        29.88F
DALLAS LOVE    PTSUNNY   85  68  56 VRB7      29.88F
FTW MEACHAM    PTSUNNY   88  66  48 S12       29.88F HX  90
DAL-EXECUTIVE  MOSUNNY   87  67  51 VRB7      29.89F HX  90
FTW-ALLIANCE   PTSUNNY   86  65  49 S6        29.88F
FTW-NAS-JRB    MOSUNNY   88  63  43 S8        29.92F
FTW-SPINKS     PTSUNNY   86  64  48 SE7       29.90F
ARLINGTON      PTSUNNY   83  67  58 S8        29.89F
GRAND PRAIRIE  SUNNY     84  64  51 MISG      29.90F
ADDISON        PTSUNNY   82  66  57 S5        29.90F
MESQUITE       PTSUNNY   70  66  88 SE8       29.89F
LANCASTER      PTSUNNY   84  66  55 S7        29.90F
$$

TXZ091>094-102>105-117-120-121-131>134-301800-
NORTH CENTRAL TEXAS

CITY           SKY/WX    TMP DP  RH WIND       PRES   REMARKS
SHRMAN/DENISON PTSUNNY   83  66  56 SE6       29.91F
GAINESVILLE    PTSUNNY   82  66  58 S6        29.91F
BOWIE          SUNNY     83  61  46 S13       29.89F
BRIDGEPORT     MOSUNNY   87  56  35 SE10      29.90F
DECATUR        SUNNY     83  60  44 S12       29.89F
DENTON         CLOUDY    86  66  51 VRB5      29.88F
MCKINNEY       MOSUNNY   83  68  60 S10       29.89F
GREENVILLE     MOSUNNY   88  66  48 SE10      29.90F HX  90
ROCKWALL       PTSUNNY   81  69  67 W5        29.89F
TERRELL        MOSUNNY   87  68  52 S9        29.90F HX  90
WAXAHACHIE     PTSUNNY   85  65  51 S10       29.90F
CLEBURNE       MOSUNNY   84  66  54 S5        29.91F
GRANBURY       MOSUNNY   87  60  39 S9        29.89F
$$

TXZ083>090-098>101-113>116-127>130-139>142-154-155-301800-
WESTERN NORTH TEXAS

CITY           SKY/WX    TMP DP  RH WIND       PRES   REMARKS
WICHITA FALLS  SUNNY     86  59  39 S15G24    29.86F
WF-KICKAPOO    SUNNY     85  56  35 S15       29.88F
VERNON         MOSUNNY   85  59  40 SW10G16   29.87F
ABILENE        SUNNY     85  61  44 S17G23    29.90F
ABILENE-DYESS  SUNNY     85  61  44 S15       29.89S
BRECKENRIDGE   MOSUNNY   87  59  38 S8G20     29.88F HAZE
GRAHAM         MOSUNNY   85  57  37 S9G16     29.86F
MINERAL WELLS  SUNNY     86  58  38 S8        29.88F
STEPHENVILLE   SUNNY     83  58  41 S8        29.94F
COMANCHE       SUNNY     86  57  36 S6        29.91F
BROWNWOOD      SUNNY     82  59  44 S13       29.91F
COLEMAN        SUNNY     85  58  40 S13       29.91F
BRADY          SUNNY     82  61  47 S8        29.91F
$$

TXZ143>147-156>162-174-175-301800-
CENTRAL TEXAS

CITY           SKY/WX    TMP DP  RH WIND       PRES   REMARKS
WACO           SUNNY     86  68  54 S8        29.89F
WACO-MCGREGOR  CLOUDY    84  64  51 SW6       29.90F
HILLSBORO      MOSUNNY   86  66  52 SW7       29.89F
CORSICANA      PTSUNNY   87  67  51 SE13      29.90F HX  90
MEXIA          CLOUDY    83  71  66 S6        29.89F
HEARNE         MOSUNNY   83  71  66 S5        29.89F
CAMERON        MOSUNNY   84  69  61 SE3       29.88F
TEMPLE         MOSUNNY   84  64  51 S9        29.89F
KILLEEN        MOSUNNY   84  63  48 E8        29.90F
KILLEEN-SKYLRK MOSUNNY   84  63  48 CALM      29.90F
FORT HOOD      MOSUNNY   88  65  46 SE9       29.90F HX  90
GATESVILLE     SUNNY     84  63  48 S8        29.92F
HAMILTON       SUNNY     84  58  40 SE7G16    29.92F
LAMPASAS       SUNNY     83  64  53 E3        29.90F
$$

TXZ095>097-106>112-122>126-135>138-148>153-164>167-301800-
EAST TEXAS

CITY           SKY/WX    TMP DP  RH WIND       PRES   REMARKS
PARIS          MOSUNNY   82  64  54 S6        29.92F
SULPHUR SPRNGS MOSUNNY   85  66  52 S8        29.93S
MOUNT PLEASANT MOSUNNY   85  65  51 S8        29.91F
GILMER         MOSUNNY   84  70  61 S3        29.92F
MINEOLA        MOSUNNY   84  70  61 S6        29.91F
TYLER          SUNNY     84  69  60 VRB7      29.90F
LONGVIEW       MOSUNNY   86  67  52 S7        29.89F
MARSHALL       MOSUNNY   89  70  53 SE3       29.92F HX  94
ATHENS         CLOUDY    81  68  65 S6        29.89F
PALESTINE      PTSUNNY   82  71  68 S3        29.91F
JACKSONVILLE   MOSUNNY   83  69  62 S7        29.93S
HENDERSON      SUNNY     86  67  52 SE6       29.90F
NACOGDOCHES    MOSUNNY   84  70  61 SE9       29.90F
LUFKIN         PTSUNNY   87  71  58 E5        29.89F HX  93
$$

SUPPLEMENTAL OBSERVATIONS (CENTRAL)

CITY           SKY/WX    TMP DP  RH WIND       PRES   REMARKS
LAKE TEXOMA      N/A     81  66  61 S3          N/A
CADDO GRASSLND   N/A     82  66  57 S9          N/A
PAT MAYSE LAKE   N/A     79  64  61 S2          N/A
GREENVILLE       N/A     84  66  54 S8G16       N/A
CEDAR HILL       N/A     90  68  48 SE5G13      N/A  HX  93
ATHENS           N/A     84  68  58 S7          N/A
MCGREGOR         N/A     88  64  45 SW6         N/A
$$

SUPPLEMENTAL OBSERVATIONS (WEST)

CITY           SKY/WX    TMP DP  RH WIND       PRES   REMARKS
LBJ GRASSLAND    N/A     88  66  48 S9          N/A  HX  90
HAMBY            N/A     84  61  45 S15         N/A
IVIE RESERVOIR   N/A     86  61  42 S10         N/A
COLORADO BEND    N/A     82  59  44 S7          N/A
$$

SUPPLEMENTAL OBSERVATIONS (EAST)

CITY           SKY/WX    TMP DP  RH WIND       PRES   REMARKS
CLARKSVILLE      N/A     86  66  51 SE7         N/A
TEXARKANA        N/A     84  64  51 S5          N/A
LINDEN           N/A     84  64  51 S3          N/A
CADDO LAKE       N/A     90  68  48 SE5         N/A  HX  93
GILMER           N/A     84  66  54 S5          N/A
HENDERSON        N/A     88  68  51 S6          N/A  HX  91
LUFKIN           N/A     88  72  58 MISG        N/A  HX  94
N SABINE NF      N/A     91  72  52 MISG        N/A  HX  98
S SABINE NF      N/A     88  73  62 SE5         N/A  HX  96
$$

SUPPLEMENTAL OBSERVATIONS ARE A COLLECTION OF AUTOMATED INSTRUMENTS
THAT ARE MAINTAINED BY A VARIETY OF FEDERAL AND STATE AGENCIES.
CERTAIN ELEMENTS...SUCH AS HUMIDITY VALUES AND SUSTAINED WIND
SPEEDS...MAY BE APPROXIMATED.





U.S. Dept. of Commerce
NOAA National Weather Service
1325 East West Highway
Silver Spring, MD 20910
E-mail: w-nws.webmaster@noaa.gov
Page last modified: May 16, 2007
NATIONAL WEATHER SERVICE: for Safety, for Work, for Fun - FOR LIFE